timestamp,surface_pressure_avg,surface_temp_avg,battery_voltage,lat,long
2021-01-10 00:09:01+00:00,263.8097,4.0,12.57,47.84626,-54.09684
2021-01-10 00:19:01+00:00,261.0498,4.0,12.57,47.84626,-54.09684
2021-01-10 00:29:01+00:00,250.3047,4.0,12.57,47.84626,-54.09684
2021-01-10 00:39:01+00:00,242.2714,4.0,12.57,47.84626,-54.09684
2021-01-10 00:49:01+00:00,237.6731,4.0,12.57,47.84626,-54.09684
2021-01-10 00:59:01+00:00,226.5781,4.0,12.57,47.84626,-54.09684
2021-01-10 01:09:01+00:00,216.8464,4.0,12.57,47.84626,-54.09684
2021-01-10 01:19:01+00:00,216.1848,4.0,12.49,47.84626,-54.09684
2021-01-10 01:29:01+00:00,216.5248,4.0,12.49,47.84626,-54.09684
2021-01-10 01:39:01+00:00,211.3914,3.99,12.49,47.84626,-54.09684
2021-01-10 01:49:01+00:00,203.1615,3.97,12.49,47.84626,-54.09684
2021-01-10 01:59:01+00:00,202.9714,3.95,12.49,47.84626,-54.09684
2021-01-10 02:09:01+00:00,208.1765,3.94,12.49,47.84626,-54.09684
2021-01-10 02:19:01+00:00,205.2398,3.94,12.49,47.84626,-54.09684
2021-01-10 02:29:01+00:00,204.1981,3.94,12.49,47.84626,-54.09684
2021-01-10 02:39:01+00:00,210.9931,3.91,12.49,47.84626,-54.09684
2021-01-10 02:49:01+00:00,211.4931,3.9,12.49,47.84626,-54.09684
2021-01-10 02:59:01+00:00,203.0481,3.9,12.49,47.84626,-54.09684
2021-01-10 03:09:01+00:00,203.9331,3.9,12.49,47.84626,-54.09684
2021-01-10 03:19:01+00:00,214.1831,3.9,12.41,47.84626,-54.09684
2021-01-10 03:29:01+00:00,212.4398,3.9,12.41,47.84626,-54.09684
2021-01-10 03:39:01+00:00,213.2248,3.9,12.41,47.84626,-54.09684
2021-01-10 03:49:01+00:00,223.8081,3.9,12.41,47.84626,-54.09684
2021-01-10 03:59:01+00:00,226.2431,3.9,12.41,47.84626,-54.09684
2021-01-10 04:09:01+00:00,223.9531,3.89,12.41,47.84626,-54.09684
2021-01-10 04:19:01+00:00,234.8131,3.87,12.41,47.84626,-54.09684
2021-01-10 04:29:01+00:00,243.9698,3.9,12.41,47.84626,-54.09684
2021-01-10 04:39:01+00:00,247.9131,3.9,12.41,47.84626,-54.09684
2021-01-10 04:49:01+00:00,253.1215,3.9,12.41,47.84626,-54.09684
2021-01-10 04:59:01+00:00,261.0781,3.9,12.41,47.84626,-54.09684
2021-01-10 05:09:01+00:00,258.8831,3.88,12.41,47.84626,-54.09684
2021-01-10 05:19:01+00:00,262.3831,3.85,12.41,47.84626,-54.09684
2021-01-10 05:29:01+00:00,272.2414,3.86,12.41,47.84626,-54.09684
2021-01-10 05:39:01+00:00,282.8497,3.9,12.41,47.84626,-54.09684
2021-01-10 05:49:01+00:00,285.938,3.9,12.41,47.84626,-54.09684
2021-01-10 05:59:01+00:00,295.048,3.95,12.41,47.84626,-54.09684
2021-01-10 06:09:01+00:00,304.358,4.0,12.41,47.84626,-54.09684
2021-01-10 06:19:01+00:00,310.9479,4.0,12.41,47.84626,-54.09684
2021-01-10 06:29:01+00:00,316.9247,4.0,12.41,47.84626,-54.09684
2021-01-10 06:39:01+00:00,327.1863,4.04,12.41,47.84626,-54.09684
2021-01-10 06:49:01+00:00,327.8813,4.07,12.41,47.84626,-54.09684
2021-01-10 06:59:01+00:00,336.67800000000005,4.09,12.41,47.84626,-54.09684
2021-01-10 07:09:01+00:00,345.6146,4.1,12.41,47.84626,-54.09684
2021-01-10 07:19:01+00:00,347.6429,4.1,12.41,47.84626,-54.09684
2021-01-10 07:29:01+00:00,345.9496,4.14,12.41,47.84626,-54.09684
2021-01-10 07:39:01+00:00,353.7947,4.2,12.41,47.84626,-54.09684
2021-01-10 07:49:01+00:00,364.6697,4.2,12.41,47.84626,-54.09684
2021-01-10 07:59:01+00:00,360.628,4.2,12.41,47.84626,-54.09684
2021-01-10 08:09:01+00:00,355.8429,4.2,12.41,47.84626,-54.09684
2021-01-10 08:19:01+00:00,359.2496,4.2,12.41,47.84626,-54.09684
2021-01-10 08:29:01+00:00,360.69800000000004,4.2,12.41,47.84626,-54.09684
2021-01-10 08:39:01+00:00,360.0446,4.2,12.41,47.84626,-54.09684
2021-01-10 08:49:01+00:00,362.5896,4.2,12.41,47.84626,-54.09684
2021-01-10 08:59:01+00:00,368.278,4.2,12.41,47.84626,-54.09684
2021-01-10 09:09:01+00:00,372.1013,4.2,12.41,47.84626,-54.09684
2021-01-10 09:19:01+00:00,373.0197,4.2,12.41,47.84626,-54.09684
2021-01-10 09:29:01+00:00,375.5862,4.2,12.41,47.84626,-54.09684
2021-01-10 09:39:01+00:00,374.9412,4.2,12.41,47.84626,-54.09684
2021-01-10 09:49:01+00:00,370.8445,4.2,12.41,47.84626,-54.09684
2021-01-10 09:59:01+00:00,367.6929,4.2,12.41,47.84626,-54.09684
2021-01-10 10:09:01+00:00,365.8813,4.2,12.41,47.84626,-54.09684
2021-01-10 10:19:01+00:00,360.6346,4.2,12.41,47.84626,-54.09684
2021-01-10 10:29:01+00:00,362.1029,4.2,12.41,47.84626,-54.09684
2021-01-10 10:39:01+00:00,357.8463,4.2,12.41,47.84626,-54.09684
2021-01-10 10:49:01+00:00,348.2879,4.19,12.41,47.84626,-54.09684
2021-01-10 10:59:01+00:00,344.93300000000005,4.2,12.41,47.84626,-54.09684
2021-01-10 11:09:01+00:00,348.1763,4.2,12.41,47.84626,-54.09684
2021-01-10 11:19:01+00:00,337.8346,4.2,12.41,47.84626,-54.09684
2021-01-10 11:29:01+00:00,325.0714,4.14,12.41,47.84626,-54.09684
2021-01-10 11:39:01+00:00,324.5996,4.09,12.41,47.84626,-54.09684
2021-01-10 11:49:01+00:00,320.7263,4.05,12.41,47.84626,-54.09684
2021-01-10 11:59:01+00:00,309.5547,4.11,12.41,47.84626,-54.09684
2021-01-10 12:09:01+00:00,303.783,4.17,12.41,47.84626,-54.09684
2021-01-10 12:19:01+00:00,297.8363,4.17,12.41,47.84626,-54.09684
2021-01-10 12:29:01+00:00,289.5648,4.1,12.41,47.84626,-54.09684
2021-01-10 12:39:01+00:00,283.4614,4.1,12.41,47.84626,-54.09684
2021-01-10 12:49:01+00:00,279.1431,4.1,12.41,47.84626,-54.09684
2021-01-10 12:59:01+00:00,267.7148,3.99,12.41,47.84626,-54.09684
2021-01-10 13:09:01+00:00,257.1614,4.0,12.41,47.84626,-54.09684
2021-01-10 13:19:01+00:00,254.8698,3.9,12.57,47.84626,-54.09684
2021-01-10 13:29:01+00:00,251.5581,3.8,12.57,47.84626,-54.09684
2021-01-10 13:39:01+00:00,245.6514,3.8,12.57,47.84626,-54.09684
2021-01-10 13:49:01+00:00,239.3281,3.8,12.57,47.84626,-54.09684
2021-01-10 13:59:01+00:00,238.2081,3.8,12.57,47.84626,-54.09684
2021-01-10 14:09:01+00:00,235.1214,3.8,12.57,47.84626,-54.09684
2021-01-10 14:19:01+00:00,229.4014,3.8,12.73,47.84626,-54.09684
2021-01-10 14:29:01+00:00,222.6697,3.83,12.73,47.84626,-54.09684
2021-01-10 14:39:01+00:00,218.9331,3.8,12.73,47.84626,-54.09684
2021-01-10 14:49:01+00:00,218.7014,3.84,12.73,47.84626,-54.09684
2021-01-10 14:59:01+00:00,220.4914,3.87,12.73,47.84626,-54.09684
2021-01-10 15:09:01+00:00,218.1331,3.88,12.73,47.84626,-54.09684
2021-01-10 15:19:01+00:00,220.2431,3.9,12.81,47.84626,-54.09684
2021-01-10 15:29:01+00:00,225.3914,3.92,12.81,47.84626,-54.09684
2021-01-10 15:39:01+00:00,224.2964,4.0,12.81,47.84626,-54.09684
2021-01-10 15:49:01+00:00,220.9831,4.0,12.81,47.84626,-54.09684
2021-01-10 15:59:01+00:00,225.4965,4.0,12.81,47.84626,-54.09684
2021-01-10 16:09:01+00:00,229.0265,4.0,12.81,47.84626,-54.09684
2021-01-10 16:19:01+00:00,223.0914,4.0,13.05,47.84626,-54.09684
2021-01-10 16:29:01+00:00,222.7081,4.0,13.05,47.84626,-54.09684
2021-01-10 16:39:01+00:00,229.5814,4.0,13.05,47.84626,-54.09684
2021-01-10 16:49:01+00:00,229.9731,4.0,13.05,47.84626,-54.09684
2021-01-10 16:59:01+00:00,226.0531,4.0,13.05,47.84626,-54.09684
2021-01-10 17:09:01+00:00,230.9148,4.0,13.05,47.84626,-54.09684
2021-01-10 17:19:01+00:00,238.5931,3.9,12.97,47.84626,-54.09684
2021-01-10 17:29:01+00:00,238.4964,3.9,12.97,47.84626,-54.09684
2021-01-10 17:39:01+00:00,236.0231,3.9,12.97,47.84626,-54.09684
2021-01-10 17:49:01+00:00,239.2398,3.9,12.97,47.84626,-54.09684
2021-01-10 17:59:01+00:00,243.9065,3.9,12.97,47.84626,-54.09684
2021-01-10 18:09:01+00:00,247.6331,3.95,12.97,47.84626,-54.09684
2021-01-10 18:19:01+00:00,252.6247,4.02,12.97,47.84626,-54.09684
2021-01-10 18:29:01+00:00,261.52299999999997,4.09,12.97,47.84626,-54.09684
2021-01-10 18:39:01+00:00,270.3914,3.97,12.97,47.84626,-54.09684
2021-01-10 18:49:01+00:00,276.0081,3.99,12.97,47.84626,-54.09684
2021-01-10 18:59:01+00:00,276.5948,4.1,12.97,47.84626,-54.09684
2021-01-10 19:09:01+00:00,281.3414,4.1,12.97,47.84626,-54.09684
2021-01-10 19:19:01+00:00,291.3747,4.1,12.89,47.84626,-54.09684
2021-01-10 19:29:01+00:00,299.5731,4.1,12.89,47.84626,-54.09684
2021-01-10 19:39:01+00:00,301.3063,4.1,12.89,47.84626,-54.09684
2021-01-10 19:49:01+00:00,308.8797,4.1,12.89,47.84626,-54.09684
2021-01-10 19:59:01+00:00,316.2897,4.1,12.89,47.84626,-54.09684
2021-01-10 20:09:01+00:00,318.8697,4.1,12.89,47.84626,-54.09684
2021-01-10 20:19:01+00:00,324.5347,4.1,12.73,47.84626,-54.09684
2021-01-10 20:29:01+00:00,333.6697,4.1,12.73,47.84626,-54.09684
2021-01-10 20:39:01+00:00,335.4963,4.1,12.73,47.84626,-54.09684
2021-01-10 20:49:01+00:00,334.4813,4.1,12.73,47.84626,-54.09684
2021-01-10 20:59:01+00:00,341.0328,4.1,12.73,47.84626,-54.09684
2021-01-10 21:09:01+00:00,346.4413,4.09,12.73,47.84626,-54.09684
2021-01-10 21:19:01+00:00,345.8397,4.09,12.65,47.84626,-54.09684
2021-01-10 21:29:01+00:00,346.8946,4.06,12.65,47.84626,-54.09684
2021-01-10 21:39:01+00:00,351.7646,4.05,12.65,47.84626,-54.09684
2021-01-10 21:49:01+00:00,354.74300000000005,4.07,12.65,47.84626,-54.09684
2021-01-10 21:59:01+00:00,353.9763,4.07,12.65,47.84626,-54.09684
2021-01-10 22:09:01+00:00,354.25300000000016,4.06,12.65,47.84626,-54.09684
2021-01-10 22:19:01+00:00,358.3412,4.04,12.57,47.84626,-54.09684
2021-01-10 22:29:01+00:00,360.9129,4.03,12.57,47.84626,-54.09684
2021-01-10 22:39:01+00:00,358.0062,4.02,12.57,47.84626,-54.09684
2021-01-10 22:49:01+00:00,356.4279,4.0,12.57,47.84626,-54.09684
2021-01-10 22:59:01+00:00,355.3279,4.0,12.57,47.84626,-54.09684
2021-01-10 23:09:01+00:00,351.5613,4.0,12.57,47.84626,-54.09684
2021-01-10 23:19:01+00:00,343.8497,4.0,12.49,47.84626,-54.09684
2021-01-10 23:29:01+00:00,338.0780000000001,4.0,12.49,47.84626,-54.09684
2021-01-10 23:39:01+00:00,334.1746,4.0,12.49,47.84626,-54.09684
2021-01-10 23:49:01+00:00,327.113,4.0,12.49,47.84626,-54.09684
2021-01-10 23:59:01+00:00,314.293,4.0,12.49,47.84626,-54.09684
